User: anonymous   Login
Location: Unspecified
(0.0000°N, 0.0000°E)
Time: 03:53:08
(UTC+00:00)
Language:

METEOR-M - Orbit

View from above orbital plane
View from above orbital plane
View from above satellite
View from above satellite

Ground track
Ground track

The orbit data is extracted from the following two-line orbital elements,

1 35865U 09049A   18056.88680720  .00000035  00000-0  34535-4 0  9990
2 35865  98.4106  72.0751 0003383 117.0242 243.1282 14.22138161438166
Epoch (UTC): 25 February 2018 21:17:00
Eccentricity: 0.0003383
inclination: 98.4106°
perigee height: 815 km
apogee height: 820 km
right ascension of ascending node: 72.0751°
argument of perigee: 117.0242°
revolutions per day: 14.22138161
mean anomaly at epoch: 243.1282°
orbit number at epoch: 43816

The dashed part of the orbit path shows where the satellite is in the earth's shadow,  

DLR